| time (UTC) | temp C | wind direction | speed KPH | gust KPH | rain 1hr cm | rain 24hr cm | rain mn cm | humidity % | barometer mb |
| 20260906120714 | 17 | 35 | 0.0 | 0.0 | 0.00 | 0.00 | 0.00 | 99 | 1015.6 |
| 20260906120211 | 17 | 35 | 0.0 | 0.0 | 0.00 | 0.00 | 0.00 | 99 | 1015.3 |
| 20260906115706 | 16 | 36 | 0.0 | 0.0 | 0.00 | 0.00 | 0.00 | 99 | 1015.5 |
| 20260906115201 | 16 | 36 | 0.0 | 0.0 | 0.00 | 0.00 | 0.00 | 99 | 1015.4 |
| 20260906114700 | 16 | 36 | 0.0 | 0.0 | 0.00 | 0.00 | 0.00 | 99 | 1015.2 |
| 20260906114155 | 16 | 36 | 0.0 | 0.0 | 0.00 | 0.00 | 0.00 | 99 | 1015.4 |
| 20260906113655 | 16 | 36 | 0.0 | 0.0 | 0.00 | 0.00 | 0.00 | 99 | 1015.1 |
| 20260906113155 | 16 | 36 | 0.0 | 0.0 | 0.00 | 0.00 | 0.00 | 99 | 1015.2 |
| 20260906112654 | 16 | 36 | 0.0 | 0.0 | 0.00 | 0.00 | 0.00 | 99 | 1015.1 |
| 20260906112152 | 16 | 35 | 0.0 | 0.0 | 0.00 | 0.00 | 0.00 | 99 | 1015.2 |
| 20260906111651 | 16 | 39 | 0.0 | 0.0 | 0.00 | 0.00 | 0.00 | 99 | 1015.3 |
| 20260906111145 | 16 | 41 | 0.0 | 0.0 | 0.00 | 0.00 | 0.00 | 99 | 1015.1 |
| 20260906110641 | 16 | 41 | 0.0 | 0.0 | 0.00 | 0.00 | 0.00 | 99 | 1015.1 |
| 20260906110136 | 16 | 41 | 0.0 | 0.0 | 0.00 | 0.00 | 0.00 | 99 | 1015.0 |
| 20260906105630 | 16 | 26 | 0.0 | 0.0 | 0.00 | 0.00 | 0.00 | 99 | 1014.8 |
| 20260906105126 | 16 | 26 | 0.0 | 0.0 | 0.00 | 0.00 | 0.00 | 99 | 1014.4 |
| 20260906104626 | 16 | 26 | 0.0 | 0.0 | 0.00 | 0.00 | 0.00 | 99 | 1014.4 |
| 20260906104119 | 16 | 26 | 0.0 | 0.0 | 0.00 | 0.00 | 0.00 | 99 | 1014.7 |
| 20260906103618 | 16 | 26 | 0.0 | 0.0 | 0.00 | 0.00 | 0.00 | 99 | 1014.8 |
| 20260906103113 | 16 | 26 | 0.0 | 0.0 | 0.00 | 0.00 | 0.00 | 99 | 1014.4 |
| 20260906102613 | 16 | 26 | 0.0 | 0.0 | 0.00 | 0.00 | 0.00 | 99 | 1014.7 |
| 20260906102103 | 16 | 26 | 0.0 | 0.0 | 0.00 | 0.00 | 0.00 | 99 | 1014.3 |
| 20260906101603 | 16 | 39 | 0.0 | 0.0 | 0.00 | 0.00 | 0.00 | 99 | 1014.4 |
| 20260906101103 | 16 | 35 | 1.6 | 1.6 | 0.00 | 0.00 | 0.00 | 99 | 1014.3 |
| 20260906100558 | 16 | 24 | 0.0 | 0.0 | 0.00 | 0.00 | 0.00 | 99 | 1014.0 |
| 20260906100059 | 16 | 29 | 0.0 | 0.0 | 0.00 | 0.00 | 0.00 | 99 | 1014.2 |
| 20260906095558 | 16 | 27 | 1.6 | 1.6 | 0.00 | 0.00 | 0.00 | 99 | 1014.1 |
| 20260906095054 | 16 | 28 | 0.0 | 0.0 | 0.00 | 0.00 | 0.00 | 99 | 1014.1 |
| 20260906094553 | 16 | 29 | 0.0 | 0.0 | 0.00 | 0.00 | 0.00 | 99 | 1014.1 |
| 20260906094049 | 16 | 29 | 0.0 | 0.0 | 0.00 | 0.00 | 0.00 | 99 | 1014.1 |
| 20260906093544 | 16 | 29 | 0.0 | 0.0 | 0.00 | 0.00 | 0.00 | 99 | 1014.2 |
| 20260906093039 | 16 | 29 | 0.0 | 0.0 | 0.00 | 0.00 | 0.00 | 99 | 1014.0 |
| 20260906092534 | 16 | 28 | 0.0 | 0.0 | 0.00 | 0.00 | 0.00 | 99 | 1014.1 |
| 20260906092029 | 16 | 28 | 0.0 | 0.0 | 0.00 | 0.00 | 0.00 | 99 | 1013.9 |
| 20260906091525 | 16 | 28 | 0.0 | 0.0 | 0.00 | 0.00 | 0.00 | 99 | 1014.2 |
| 20260906091021 | 16 | 29 | 0.0 | 0.0 | 0.00 | 0.00 | 0.00 | 99 | 1014.0 |
| 20260906090522 | 17 | 28 | 0.0 | 0.0 | 0.00 | 0.00 | 0.00 | 99 | 1014.2 |
| 20260906090017 | 17 | 28 | 0.0 | 0.0 | 0.00 | 0.00 | 0.00 | 99 | 1014.2 |
| 20260906085515 | 17 | 28 | 0.0 | 0.0 | 0.00 | 0.00 | 0.00 | 99 | 1014.3 |
| 20260906085016 | 17 | 28 | 0.0 | 0.0 | 0.00 | 0.00 | 0.00 | 99 | 1014.2 |
| 20260906084516 | 17 | 29 | 0.0 | 0.0 | 0.00 | 0.00 | 0.00 | 99 | 1014.8 |
| 20260906084014 | 17 | 28 | 0.0 | 0.0 | 0.00 | 0.00 | 0.00 | 99 | 1014.4 |
| 20260906083510 | 17 | 29 | 0.0 | 0.0 | 0.00 | 0.00 | 0.00 | 99 | 1014.6 |
| 20260906083010 | 17 | 28 | 0.0 | 0.0 | 0.00 | 0.00 | 0.00 | 99 | 1014.3 |
| 20260906082505 | 17 | 28 | 0.0 | 0.0 | 0.00 | 0.00 | 0.00 | 99 | 1014.3 |
| 20260906082001 | 17 | 28 | 0.0 | 0.0 | 0.00 | 0.00 | 0.00 | 99 | 1014.3 |
| 20260906081456 | 17 | 28 | 0.0 | 0.0 | 0.00 | 0.00 | 0.00 | 99 | 1014.2 |
| 20260906080952 | 17 | 28 | 0.0 | 0.0 | 0.00 | 0.00 | 0.00 | 99 | 1014.3 |
| 20260906080448 | 17 | 28 | 0.0 | 0.0 | 0.00 | 0.00 | 0.00 | 99 | 1014.4 |
| 20260906075943 | 17 | 28 | 0.0 | 0.0 | 0.00 | 0.00 | 0.00 | 99 | 1014.1 |
| 20260906075438 | 17 | 28 | 0.0 | 0.0 | 0.00 | 0.00 | 0.00 | 99 | 1014.2 |
| 20260906074933 | 17 | 31 | 0.0 | 0.0 | 0.00 | 0.00 | 0.00 | 99 | 1014.1 |
| 20260906074432 | 17 | 31 | 0.0 | 0.0 | 0.00 | 0.00 | 0.00 | 99 | 1014.1 |
| 20260906073931 | 17 | 31 | 0.0 | 0.0 | 0.00 | 0.00 | 0.00 | 99 | 1014.1 |
| 20260906073426 | 17 | 31 | 0.0 | 0.0 | 0.00 | 0.00 | 0.00 | 99 | 1014.1 |
| 20260906072923 | 17 | 32 | 0.0 | 0.0 | 0.00 | 0.00 | 0.00 | 99 | 1014.1 |
| 20260906072418 | 17 | 32 | 0.0 | 0.0 | 0.00 | 0.00 | 0.00 | 99 | 1013.9 |
| 20260906071914 | 17 | 32 | 0.0 | 0.0 | 0.00 | 0.00 | 0.00 | 99 | 1014.0 |
| 20260906071409 | 17 | 29 | 0.0 | 0.0 | 0.00 | 0.00 | 0.00 | 99 | 1013.9 |
| 20260906070905 | 17 | 29 | 0.0 | 0.0 | 0.00 | 0.00 | 0.00 | 99 | 1014.1 |
| 20260906070401 | 17 | 29 | 0.0 | 0.0 | 0.00 | 0.00 | 0.00 | 99 | 1014.0 |
| 20260906065857 | 17 | 29 | 0.0 | 0.0 | 0.00 | 0.00 | 0.00 | 99 | 1013.9 |
| 20260906065350 | 17 | 32 | 1.6 | 1.6 | 0.00 | 0.00 | 0.00 | 99 | 1014.0 |
| 20260906064846 | 17 | 32 | 0.0 | 0.0 | 0.00 | 0.00 | 0.00 | 99 | 1014.3 |
| 20260906064343 | 17 | 32 | 0.0 | 0.0 | 0.00 | 0.00 | 0.00 | 99 | 1014.3 |
| 20260906063842 | 17 | 32 | 0.0 | 0.0 | 0.00 | 0.00 | 0.00 | 99 | 1014.4 |
| 20260906063338 | 17 | 35 | 0.0 | 0.0 | 0.00 | 0.00 | 0.00 | 99 | 1014.3 |
| 20260906062832 | 17 | 35 | 0.0 | 0.0 | 0.00 | 0.00 | 0.00 | 99 | 1014.1 |
| 20260906062332 | 17 | 35 | 0.0 | 0.0 | 0.00 | 0.00 | 0.00 | 99 | 1014.1 |
| 20260906061827 | 17 | 35 | 0.0 | 0.0 | 0.00 | 0.00 | 0.00 | 99 | 1014.3 |
| 20260906061324 | 17 | 35 | 0.0 | 0.0 | 0.00 | 0.00 | 0.00 | 99 | 1014.4 |
| 20260906060818 | 17 | 35 | 0.0 | 0.0 | 0.00 | 0.00 | 0.00 | 99 | 1014.4 |
| 20260906060316 | 17 | 35 | 0.0 | 0.0 | 0.00 | 0.00 | 0.00 | 99 | 1014.6 |
| 20260906055812 | 18 | 35 | 0.0 | 0.0 | 0.00 | 0.00 | 0.00 | 99 | 1014.4 |
| 20260906055307 | 18 | 35 | 0.0 | 0.0 | 0.00 | 0.00 | 0.00 | 99 | 1014.8 |
| 20260906054802 | 18 | 34 | 0.0 | 0.0 | 0.00 | 0.00 | 0.00 | 99 | 1014.7 |
| 20260906054257 | 18 | 33 | 0.0 | 0.0 | 0.00 | 0.00 | 0.00 | 99 | 1014.9 |
| 20260906053754 | 18 | 33 | 0.0 | 0.0 | 0.00 | 0.00 | 0.00 | 99 | 1014.7 |
| 20260906053249 | 18 | 33 | 0.0 | 0.0 | 0.00 | 0.00 | 0.00 | 99 | 1014.6 |
| 20260906052744 | 18 | 33 | 0.0 | 0.0 | 0.00 | 0.00 | 0.00 | 99 | 1014.6 |
| 20260906052240 | 18 | 33 | 0.0 | 0.0 | 0.00 | 0.00 | 0.00 | 99 | 1014.6 |
| 20260906051737 | 18 | 33 | 0.0 | 0.0 | 0.00 | 0.00 | 0.00 | 98 | 1014.3 |
| 20260906051237 | 18 | 33 | 0.0 | 0.0 | 0.00 | 0.00 | 0.00 | 99 | 1014.7 |
| 20260906050732 | 18 | 33 | 0.0 | 0.0 | 0.00 | 0.00 | 0.00 | 98 | 1014.6 |
| 20260906050227 | 18 | 33 | 0.0 | 0.0 | 0.00 | 0.00 | 0.00 | 98 | 1014.4 |
| 20260906045726 | 18 | 33 | 0.0 | 0.0 | 0.00 | 0.00 | 0.00 | 98 | 1014.4 |
| 20260906045221 | 18 | 34 | 0.0 | 0.0 | 0.00 | 0.00 | 0.00 | 98 | 1014.2 |
| 20260906044717 | 18 | 37 | 0.0 | 0.0 | 0.00 | 0.00 | 0.00 | 98 | 1014.3 |
| 20260906044212 | 18 | 37 | 0.0 | 0.0 | 0.00 | 0.00 | 0.00 | 98 | 1014.4 |
| 20260906043708 | 18 | 37 | 0.0 | 0.0 | 0.00 | 0.00 | 0.00 | 98 | 1014.6 |
| 20260906043204 | 18 | 41 | 0.0 | 0.0 | 0.00 | 0.00 | 0.00 | 98 | 1014.6 |
| 20260906042703 | 18 | 41 | 0.0 | 0.0 | 0.00 | 0.00 | 0.00 | 98 | 1014.8 |
| 20260906042203 | 18 | 34 | 0.0 | 0.0 | 0.00 | 0.00 | 0.00 | 98 | 1014.6 |
| 20260906041658 | 18 | 27 | 0.0 | 0.0 | 0.00 | 0.00 | 0.00 | 98 | 1014.3 |
| 20260906041153 | 18 | 27 | 0.0 | 0.0 | 0.00 | 0.00 | 0.00 | 98 | 1014.6 |
| 20260906040649 | 18 | 17 | 0.0 | 0.0 | 0.00 | 0.00 | 0.00 | 98 | 1014.6 |
| 20260906040144 | 18 | 21 | 0.0 | 0.0 | 0.00 | 0.00 | 0.00 | 98 | 1014.8 |
| 20260906035644 | 18 | 38 | 0.0 | 0.0 | 0.00 | 0.53 | 0.53 | 98 | 1014.8 |
| 20260906035140 | 18 | 38 | 0.0 | 0.0 | 0.00 | 0.53 | 0.53 | 98 | 1015.0 |
| 20260906034636 | 18 | 38 | 0.0 | 0.0 | 0.00 | 0.53 | 0.53 | 98 | 1015.0 |
| 20260906034135 | 18 | 40 | 0.0 | 0.0 | 0.00 | 0.53 | 0.53 | 98 | 1015.1 |
| 20260906033631 | 18 | 41 | 0.0 | 0.0 | 0.00 | 0.53 | 0.53 | 98 | 1015.2 |
| 20260906033126 | 19 | 39 | 0.0 | 0.0 | 0.00 | 0.53 | 0.53 | 98 | 1015.2 |
| 20260906032623 | 19 | 39 | 0.0 | 0.0 | 0.00 | 0.53 | 0.53 | 98 | 1015.2 |
| 20260906032122 | 19 | 39 | 0.0 | 0.0 | 0.00 | 0.53 | 0.53 | 98 | 1015.0 |
| 20260906031618 | 19 | 39 | 0.0 | 0.0 | 0.00 | 0.53 | 0.53 | 98 | 1015.0 |
| 20260906031113 | 19 | 42 | 0.0 | 0.0 | 0.00 | 0.53 | 0.53 | 98 | 1015.2 |
| 20260906030612 | 19 | 36 | 0.0 | 0.0 | 0.00 | 0.53 | 0.53 | 98 | 1015.3 |
| 20260906030108 | 19 | 35 | 0.0 | 0.0 | 0.00 | 0.53 | 0.53 | 98 | 1015.2 |
| 20260906025607 | 19 | 33 | 1.6 | 0.0 | 0.00 | 0.53 | 0.53 | 98 | 1015.3 |
| 20260906025105 | 19 | 33 | 0.0 | 0.0 | 0.00 | 0.53 | 0.53 | 98 | 1015.3 |
| 20260906024601 | 20 | 32 | 0.0 | 0.0 | 0.00 | 0.53 | 0.53 | 98 | 1015.5 |
| 20260906024055 | 20 | 30 | 0.0 | 0.0 | 0.00 | 0.53 | 0.53 | 98 | 1015.3 |
| 20260906023551 | 20 | 33 | 0.0 | 0.0 | 0.00 | 0.53 | 0.53 | 98 | 1015.2 |
| 20260906023045 | 19 | 38 | 0.0 | 0.0 | 0.00 | 0.53 | 0.53 | 98 | 1015.2 |
| 20260906022541 | 19 | 38 | 0.0 | 0.0 | 0.00 | 0.53 | 0.53 | 98 | 1015.1 |
| 20260906022036 | 19 | 38 | 0.0 | 0.0 | 0.00 | 0.53 | 0.53 | 98 | 1015.3 |
| 20260906021532 | 19 | 38 | 0.0 | 0.0 | 0.00 | 0.53 | 0.53 | 97 | 1015.2 |
| 20260906021031 | 19 | 38 | 0.0 | 0.0 | 0.00 | 0.53 | 0.53 | 97 | 1015.1 |
| 20260906020530 | 19 | 38 | 0.0 | 0.0 | 0.00 | 0.53 | 0.53 | 97 | 1015.1 |
| 20260906020030 | 19 | 38 | 0.0 | 0.0 | 0.00 | 0.53 | 0.53 | 97 | 1015.0 |
| 20260906015530 | 19 | 38 | 0.0 | 0.0 | 0.00 | 0.53 | 0.53 | 97 | 1014.9 |
| 20260906015029 | 20 | 38 | 0.0 | 0.0 | 0.00 | 0.53 | 0.53 | 97 | 1014.8 |
| 20260906014524 | 20 | 38 | 1.6 | 1.6 | 0.00 | 0.53 | 0.53 | 97 | 1014.9 |
| 20260906014020 | 20 | 38 | 0.0 | 0.0 | 0.00 | 0.53 | 0.53 | 97 | 1014.7 |
| 20260906013515 | 20 | 38 | 0.0 | 0.0 | 0.00 | 0.53 | 0.53 | 97 | 1014.9 |
| 20260906013011 | 20 | 38 | 0.0 | 0.0 | 0.00 | 0.53 | 0.53 | 97 | 1014.8 |
| 20260906012506 | 20 | 38 | 0.0 | 0.0 | 0.00 | 0.53 | 0.53 | 97 | 1014.6 |
| 20260906012005 | 20 | 38 | 0.0 | 0.0 | 0.00 | 0.53 | 0.53 | 96 | 1014.7 |
| 20260906011502 | 20 | 39 | 0.0 | 0.0 | 0.00 | 0.53 | 0.53 | 96 | 1014.3 |
| 20260906010956 | 20 | 40 | 0.0 | 0.0 | 0.00 | 0.53 | 0.53 | 96 | 1014.2 |
| 20260906010451 | 20 | 39 | 1.6 | 1.6 | 0.00 | 0.53 | 0.53 | 96 | 1013.9 |
| 20260906005948 | 20 | 39 | 0.0 | 0.0 | 0.00 | 0.53 | 0.53 | 96 | 1014.1 |
| 20260906005447 | 20 | 39 | 0.0 | 0.0 | 0.00 | 0.53 | 0.53 | 95 | 1013.8 |
| 20260906004945 | 20 | 39 | 1.6 | 1.6 | 0.00 | 0.53 | 0.53 | 95 | 1013.8 |
| 20260906004440 | 20 | 37 | 0.0 | 0.0 | 0.00 | 0.53 | 0.53 | 95 | 1014.0 |
| 20260906003936 | 20 | 37 | 0.0 | 0.0 | 0.00 | 0.53 | 0.53 | 95 | 1014.0 |
| 20260906003435 | 20 | 37 | 0.0 | 0.0 | 0.00 | 0.53 | 0.53 | 94 | 1014.0 |
| 20260906002931 | 21 | 37 | 0.0 | 0.0 | 0.00 | 0.53 | 0.53 | 94 | 1014.0 |
| 20260906002430 | 21 | 37 | 0.0 | 0.0 | 0.00 | 0.53 | 0.53 | 93 | 1014.2 |
| 20260906001925 | 21 | 38 | 1.6 | 1.6 | 0.00 | 0.53 | 0.53 | 92 | 1014.0 |
| 20260906001421 | 21 | 36 | 1.6 | 1.6 | 0.00 | 0.53 | 0.53 | 91 | 1014.0 |
| 20260906000916 | 21 | 27 | 0.0 | 0.0 | 0.00 | 0.53 | 0.53 | 91 | 1014.0 |
| 20260906000412 | 21 | 26 | 0.0 | 0.0 | 0.00 | 0.53 | 0.53 | 90 | 1014.2 |
| 20260905235906 | 21 | 26 | 0.0 | 0.0 | 0.00 | 0.53 | 0.53 | 90 | 1014.0 |
| 20260905235400 | 21 | 26 | 0.0 | 0.0 | 0.00 | 0.53 | 0.53 | 89 | 1014.2 |
| 20260905234855 | 22 | 26 | 0.0 | 0.0 | 0.00 | 0.53 | 0.53 | 88 | 1014.0 |
| 20260905234351 | 22 | 24 | 0.0 | 0.0 | 0.00 | 0.53 | 0.53 | 87 | 1014.0 |
| 20260905233846 | 22 | 15 | 0.0 | 0.0 | 0.00 | 0.53 | 0.53 | 86 | 1014.1 |
| 20260905233341 | 22 | 14 | 0.0 | 0.0 | 0.00 | 0.53 | 0.53 | 85 | 1014.1 |
| 20260905232840 | 22 | 14 | 0.0 | 0.0 | 0.00 | 0.53 | 0.53 | 85 | 1014.4 |
| 20260905232337 | 22 | 14 | 0.0 | 0.0 | 0.00 | 0.53 | 0.53 | 85 | 1014.0 |
| 20260905231832 | 23 | 14 | 0.0 | 0.0 | 0.00 | 0.53 | 0.53 | 84 | 1014.3 |
| 20260905231327 | 23 | 14 | 0.0 | 0.0 | 0.00 | 0.53 | 0.53 | 82 | 1014.3 |
| 20260905230824 | 23 | 14 | 0.0 | 0.0 | 0.00 | 0.53 | 0.53 | 82 | 1014.3 |
| 20260905230321 | 23 | 14 | 0.0 | 0.0 | 0.00 | 0.53 | 0.53 | 80 | 1014.2 |
| 20260905225821 | 24 | 14 | 0.0 | 0.0 | 0.00 | 0.53 | 0.53 | 79 | 1014.2 |
| 20260905225316 | 24 | 16 | 0.0 | 0.0 | 0.00 | 0.53 | 0.53 | 78 | 1014.2 |
| 20260905224815 | 25 | 16 | 0.0 | 0.0 | 0.00 | 0.53 | 0.53 | 76 | 1014.4 |
| 20260905224311 | 25 | 20 | 0.0 | 0.0 | 0.00 | 0.53 | 0.53 | 77 | 1014.4 |
| 20260905223806 | 25 | 19 | 0.0 | 0.0 | 0.00 | 0.53 | 0.53 | 75 | 1014.6 |
| 20260905223303 | 25 | 12 | 0.0 | 0.0 | 0.00 | 0.53 | 0.53 | 75 | 1014.3 |
| 20260905222759 | 25 | 21 | 0.0 | 0.0 | 0.00 | 0.53 | 0.53 | 75 | 1014.3 |
| 20260905222257 | 25 | 18 | 0.0 | 0.0 | 0.00 | 0.53 | 0.53 | 72 | 1014.3 |
| 20260905221753 | 25 | 24 | 0.0 | 0.0 | 0.00 | 0.53 | 0.53 | 72 | 1014.4 |
| 20260905221250 | 26 | 339 | 1.6 | 1.6 | 0.00 | 0.53 | 0.53 | 71 | 1014.2 |
| 20260905220746 | 27 | 27 | 0.0 | 0.0 | 0.00 | 0.53 | 0.53 | 69 | 1014.3 |
| 20260905220242 | 28 | 13 | 0.0 | 0.0 | 0.00 | 0.53 | 0.53 | 66 | 1014.1 |
| 20260905215741 | 28 | 3 | 0.0 | 0.0 | 0.00 | 0.53 | 0.53 | 67 | 1014.1 |
| 20260905215237 | 27 | 0 | 1.6 | 1.6 | 0.00 | 0.53 | 0.53 | 67 | 1014.0 |
| 20260905214732 | 28 | 4 | 1.6 | 1.6 | 0.00 | 0.53 | 0.53 | 65 | 1014.1 |
| 20260905214228 | 28 | 2 | 1.6 | 1.6 | 0.00 | 0.53 | 0.53 | 65 | 1014.0 |
| 20260905213723 | 28 | 25 | 4.8 | 6.4 | 0.00 | 0.53 | 0.53 | 60 | 1013.9 |
| 20260905213219 | 28 | 4 | 0.0 | 0.0 | 0.00 | 0.53 | 0.53 | 64 | 1014.0 |
| 20260905212714 | 28 | 1 | 0.0 | 1.6 | 0.00 | 0.53 | 0.53 | 63 | 1013.8 |
| 20260905212213 | 28 | 98 | 1.6 | 1.6 | 0.00 | 0.53 | 0.53 | 61 | 1014.0 |
| 20260905211708 | 28 | 335 | 1.6 | 1.6 | 0.00 | 0.53 | 0.53 | 66 | 1013.9 |
| 20260905211203 | 27 | 19 | 0.0 | 0.0 | 0.00 | 0.53 | 0.53 | 64 | 1013.9 |
| 20260905210700 | 28 | 301 | 1.6 | 1.6 | 0.00 | 0.53 | 0.53 | 60 | 1013.7 |
| 20260905210200 | 28 | 17 | 0.0 | 0.0 | 0.00 | 0.53 | 0.53 | 60 | 1013.8 |
| 20260905205659 | 27 | 15 | 1.6 | 1.6 | 0.00 | 0.53 | 0.53 | 64 | 1013.5 |
| 20260905205159 | 29 | 11 | 3.2 | 3.2 | 0.00 | 0.53 | 0.53 | 61 | 1013.6 |
| 20260905204658 | 28 | 352 | 1.6 | 1.6 | 0.00 | 0.53 | 0.53 | 61 | 1013.6 |
| 20260905204153 | 28 | 1 | 1.6 | 1.6 | 0.00 | 0.53 | 0.53 | 61 | 1013.7 |
| 20260905203648 | 28 | 352 | 1.6 | 1.6 | 0.00 | 0.53 | 0.53 | 66 | 1013.7 |
| 20260905203144 | 28 | 8 | 1.6 | 1.6 | 0.00 | 0.53 | 0.53 | 62 | 1013.5 |
| 20260905202639 | 27 | 346 | 0.0 | 0.0 | 0.00 | 0.53 | 0.53 | 68 | 1013.6 |
| 20260905202134 | 27 | 352 | 3.2 | 3.2 | 0.00 | 0.53 | 0.53 | 66 | 1013.4 |
| 20260905201630 | 27 | 50 | 3.2 | 4.8 | 0.00 | 0.53 | 0.53 | 63 | 1013.5 |
| 20260905201129 | 27 | 339 | 1.6 | 1.6 | 0.00 | 0.53 | 0.53 | 66 | 1013.3 |
| 20260905200625 | 27 | 23 | 3.2 | 3.2 | 0.00 | 0.53 | 0.53 | 63 | 1013.6 |
| 20260905200121 | 28 | 38 | 1.6 | 1.6 | 0.00 | 0.53 | 0.53 | 62 | 1013.5 |
| 20260905195619 | 28 | 354 | 1.6 | 1.6 | 0.00 | 0.53 | 0.53 | 68 | 1013.6 |
| 20260905195114 | 28 | 42 | 1.6 | 1.6 | 0.00 | 0.53 | 0.53 | 63 | 1013.8 |
| 20260905194614 | 28 | 5 | 1.6 | 1.6 | 0.00 | 0.53 | 0.53 | 61 | 1013.7 |
| 20260905194114 | 28 | 351 | 3.2 | 3.2 | 0.00 | 0.53 | 0.53 | 66 | 1013.8 |
| 20260905193609 | 28 | 58 | 1.6 | 1.6 | 0.00 | 0.53 | 0.53 | 62 | 1013.8 |
| 20260905193103 | 27 | 4 | 1.6 | 1.6 | 0.00 | 0.53 | 0.53 | 70 | 1013.8 |
| 20260905192559 | 27 | 27 | 1.6 | 1.6 | 0.00 | 0.53 | 0.53 | 64 | 1014.0 |
| 20260905192055 | 28 | 206 | 3.2 | 4.8 | 0.00 | 0.53 | 0.53 | 64 | 1014.2 |
| 20260905191554 | 27 | 354 | 1.6 | 1.6 | 0.00 | 0.53 | 0.53 | 63 | 1014.3 |
| 20260905191053 | 27 | 1 | 1.6 | 1.6 | 0.00 | 0.53 | 0.53 | 71 | 1014.6 |
| 20260905190551 | 27 | 186 | 3.2 | 4.8 | 0.00 | 0.53 | 0.53 | 66 | 1014.4 |
| 20260905190051 | 27 | 58 | 3.2 | 3.2 | 0.00 | 0.53 | 0.53 | 65 | 1014.8 |
| 20260905185550 | 27 | 178 | 4.8 | 6.4 | 0.00 | 0.53 | 0.53 | 65 | 1014.9 |
| 20260905185049 | 27 | 58 | 3.2 | 3.2 | 0.00 | 0.53 | 0.53 | 72 | 1015.0 |
| 20260905184544 | 26 | 21 | 1.6 | 1.6 | 0.00 | 0.53 | 0.53 | 69 | 1015.2 |
| 20260905184044 | 26 | 12 | 1.6 | 1.6 | 0.00 | 0.53 | 0.53 | 70 | 1015.2 |
| 20260905183543 | 26 | 314 | 1.6 | 1.6 | 0.00 | 0.53 | 0.53 | 71 | 1015.1 |
| 20260905183039 | 26 | 3 | 3.2 | 4.8 | 0.00 | 0.53 | 0.53 | 69 | 1015.1 |
| 20260905182539 | 26 | 358 | 1.6 | 1.6 | 0.00 | 0.53 | 0.53 | 74 | 1015.2 |
| 20260905182038 | 27 | 17 | 1.6 | 1.6 | 0.00 | 0.53 | 0.53 | 67 | 1015.0 |
| 20260905181533 | 27 | 109 | 3.2 | 3.2 | 0.00 | 0.53 | 0.53 | 67 | 1015.1 |
| 20260905181032 | 27 | 348 | 0.0 | 0.0 | 0.00 | 0.53 | 0.53 | 70 | 1014.8 |
| 20260905180527 | 27 | 13 | 1.6 | 0.0 | 0.00 | 0.53 | 0.53 | 66 | 1014.8 |
| 20260905180023 | 27 | 16 | 0.0 | 0.0 | 0.00 | 0.53 | 0.53 | 68 | 1015.1 |
| 20260905175521 | 27 | 13 | 0.0 | 0.0 | 0.00 | 0.53 | 0.53 | 72 | 1015.2 |
| 20260905175018 | 27 | 300 | 1.6 | 3.2 | 0.00 | 0.53 | 0.53 | 64 | 1015.2 |
| 20260905174513 | 27 | 77 | 1.6 | 1.6 | 0.00 | 0.53 | 0.53 | 69 | 1015.5 |
| 20260905174008 | 26 | 18 | 0.0 | 0.0 | 0.00 | 0.53 | 0.53 | 76 | 1015.5 |
| 20260905173504 | 26 | 53 | 1.6 | 1.6 | 0.00 | 0.53 | 0.53 | 69 | 1015.5 |
| 20260905173000 | 26 | 6 | 1.6 | 3.2 | 0.00 | 0.53 | 0.53 | 73 | 1015.7 |
| 20260905172458 | 26 | 17 | 1.6 | 1.6 | 0.00 | 0.53 | 0.53 | 74 | 1015.8 |
| 20260905171954 | 26 | 347 | 1.6 | 1.6 | 0.00 | 0.53 | 0.53 | 76 | 1015.9 |
| 20260905171450 | 26 | 12 | 0.0 | 0.0 | 0.00 | 0.53 | 0.53 | 81 | 1016.1 |
| 20260905170946 | 25 | 32 | 3.2 | 3.2 | 0.00 | 0.53 | 0.53 | 79 | 1016.0 |
| 20260905170442 | 25 | 0 | 1.6 | 1.6 | 0.00 | 0.53 | 0.53 | 78 | 1015.9 |
| 20260905165941 | 26 | 12 | 1.6 | 1.6 | 0.00 | 0.53 | 0.53 | 75 | 1016.0 |
| 20260905165437 | 25 | 357 | 1.6 | 1.6 | 0.00 | 0.53 | 0.53 | 81 | 1015.9 |
| 20260905164932 | 26 | 12 | 1.6 | 1.6 | 0.00 | 0.53 | 0.53 | 80 | 1016.0 |
| 20260905164432 | 25 | 212 | 4.8 | 4.8 | 0.00 | 0.53 | 0.53 | 77 | 1016.4 |
| 20260905163926 | 25 | 21 | 1.6 | 1.6 | 0.00 | 0.53 | 0.53 | 77 | 1016.1 |
| 20260905163423 | 26 | 8 | 0.0 | 0.0 | 0.00 | 0.53 | 0.53 | 78 | 1016.3 |
| 20260905162919 | 25 | 22 | 1.6 | 1.6 | 0.00 | 0.53 | 0.53 | 77 | 1016.1 |
| 20260905162414 | 24 | 44 | 0.0 | 0.0 | 0.00 | 0.53 | 0.53 | 83 | 1016.1 |
| 20260905161909 | 24 | 15 | 1.6 | 1.6 | 0.00 | 0.53 | 0.53 | 84 | 1015.8 |
| 20260905161408 | 24 | 16 | 1.6 | 1.6 | 0.00 | 0.53 | 0.53 | 82 | 1015.9 |
| 20260905160907 | 23 | 44 | 1.6 | 1.6 | 0.00 | 0.53 | 0.53 | 82 | 1015.9 |
| 20260905160401 | 23 | 6 | 1.6 | 1.6 | 0.00 | 0.53 | 0.53 | 83 | 1016.0 |
| 20260905155901 | 23 | 10 | 1.6 | 1.6 | 0.00 | 0.53 | 0.53 | 87 | 1016.1 |
| 20260905155400 | 23 | 7 | 1.6 | 1.6 | 0.00 | 0.53 | 0.53 | 85 | 1016.0 |
| 20260905154859 | 24 | 11 | 1.6 | 1.6 | 0.00 | 0.53 | 0.53 | 84 | 1015.9 |
| 20260905154355 | 24 | 23 | 1.6 | 1.6 | 0.00 | 0.53 | 0.53 | 84 | 1015.6 |
| 20260905153850 | 25 | 15 | 1.6 | 3.2 | 0.00 | 0.53 | 0.53 | 82 | 1015.5 |
| 20260905153347 | 23 | 37 | 1.6 | 1.6 | 0.00 | 0.53 | 0.53 | 86 | 1015.5 |
| 20260905152846 | 22 | 148 | 4.8 | 6.4 | 0.00 | 0.53 | 0.53 | 94 | 1015.0 |
| 20260905152345 | 21 | 271 | 1.6 | 1.6 | 0.00 | 0.53 | 0.53 | 95 | 1015.0 |
| 20260905151841 | 21 | 284 | 3.2 | 3.2 | 0.00 | 0.53 | 0.53 | 99 | 1015.1 |
| 20260905151336 | 20 | 66 | 1.6 | 1.6 | 0.00 | 0.53 | 0.53 | 99 | 1015.1 |
| 20260905150836 | 20 | 105 | 3.2 | 3.2 | 0.00 | 0.53 | 0.53 | 99 | 1015.0 |
| 20260905150331 | 20 | 71 | 3.2 | 3.2 | 0.00 | 0.53 | 0.53 | 99 | 1015.0 |
| 20260905145829 | 20 | 2 | 3.2 | 4.8 | 0.00 | 0.53 | 0.53 | 99 | 1015.1 |
| 20260905145328 | 20 | 79 | 1.6 | 1.6 | 0.00 | 0.53 | 0.53 | 99 | 1015.5 |
| 20260905144827 | 20 | 51 | 1.6 | 1.6 | 0.00 | 0.53 | 0.53 | 99 | 1016.4 |
| 20260905144323 | 20 | 32 | 0.0 | 0.0 | 0.00 | 0.53 | 0.53 | 99 | 1016.1 |
| 20260905143821 | 20 | 32 | 0.0 | 0.0 | 0.00 | 0.53 | 0.53 | 99 | 1016.6 |
| 20260905143316 | 20 | 31 | 0.0 | 0.0 | 0.00 | 0.53 | 0.53 | 99 | 1016.6 |
| 20260905142815 | 19 | 30 | 1.6 | 1.6 | 0.00 | 0.53 | 0.53 | 99 | 1016.8 |
| 20260905142309 | 19 | 22 | 1.6 | 1.6 | 0.00 | 0.53 | 0.53 | 99 | 1017.1 |
| 20260905141806 | 19 | 38 | 0.0 | 0.0 | 0.00 | 0.53 | 0.53 | 99 | 1017.2 |
| 20260905141301 | 19 | 35 | 0.0 | 0.0 | 0.00 | 0.53 | 0.53 | 99 | 1017.3 |
| 20260905140757 | 19 | 35 | 0.0 | 0.0 | 0.00 | 0.53 | 0.53 | 99 | 1017.4 |
| 20260905140256 | 19 | 36 | 0.0 | 0.0 | 0.00 | 0.53 | 0.53 | 99 | 1017.4 |
| 20260905135755 | 19 | 41 | 1.6 | 1.6 | 0.00 | 0.53 | 0.53 | 99 | 1017.4 |
| 20260905135251 | 19 | 24 | 0.0 | 0.0 | 0.00 | 0.53 | 0.53 | 99 | 1017.1 |
| 20260905134751 | 19 | 22 | 0.0 | 0.0 | 0.00 | 0.53 | 0.53 | 99 | 1017.5 |
| 20260905134250 | 19 | 24 | 1.6 | 1.6 | 0.00 | 0.53 | 0.53 | 99 | 1017.0 |
| 20260905133745 | 19 | 20 | 0.0 | 0.0 | 0.00 | 0.53 | 0.53 | 99 | 1017.4 |
| 20260905133240 | 19 | 31 | 0.0 | 0.0 | 0.00 | 0.53 | 0.53 | 99 | 1017.3 |
| 20260905132739 | 19 | 41 | 1.6 | 1.6 | 0.00 | 0.53 | 0.53 | 99 | 1017.3 |
| 20260905132235 | 19 | 33 | 1.6 | 1.6 | 0.18 | 0.53 | 0.53 | 99 | 1017.5 |
| 20260905131730 | 19 | 60 | 1.6 | 1.6 | 0.30 | 0.53 | 0.53 | 99 | 1017.1 |
| 20260905131226 | 19 | 54 | 3.2 | 3.2 | 1.07 | 0.51 | 0.51 | 99 | 1017.1 |
| 20260905130726 | 19 | 19 | 6.4 | 6.4 | 1.37 | 0.48 | 0.48 | 99 | 1017.1 |
| 20260905130225 | 19 | 32 | 1.6 | 1.6 | 1.07 | 0.43 | 0.43 | 99 | 1017.4 |
| 20260905125720 | 19 | 16 | 3.2 | 3.2 | 0.18 | 0.25 | 0.25 | 99 | 1017.2 |
| 20260905125215 | 19 | 34 | 1.6 | 1.6 | 0.18 | 0.25 | 0.25 | 99 | 1017.3 |
| 20260905124711 | 19 | 11 | 1.6 | 1.6 | 1.19 | 0.23 | 0.23 | 99 | 1017.3 |
| 20260905124208 | 18 | 37 | 1.6 | 1.6 | 1.19 | 0.23 | 0.23 | 99 | 1016.8 |
| 20260905123702 | 18 | 163 | 3.2 | 4.8 | 0.00 | 0.03 | 0.03 | 99 | 1016.9 |
| 20260905123159 | 18 | 10 | 1.6 | 1.6 | 0.00 | 0.03 | 0.03 | 99 | 1016.7 |
| 20260905122658 | 18 | 354 | 3.2 | 3.2 | 0.00 | 0.03 | 0.03 | 99 | 1015.6 |
| 20260905122153 | 18 | 36 | 0.0 | 0.0 | 0.00 | 0.03 | 0.03 | 99 | 1015.4 |
| 20260905121648 | 18 | 31 | 0.0 | 0.0 | 0.00 | 0.03 | 0.03 | 99 | 1015.3 |
| 20260905121144 | 18 | 27 | 0.0 | 0.0 | 0.00 | 0.03 | 0.03 | 99 | 1015.3 |